Regional Weather Roundup
Issued by NWS Huntsville, AL

Home | Current Version | Previous Version | Text Only | Print | Product List | Glossary On
Versions: 1 2 3 4 5 6 7 8 9 10 11 12 13 14 15 16 17 18 19 20 21 22 23 24 25 26 27
000
ASUS44 KHUN 230310
RWRHUN

WEATHER ROUNDUP FOR THE TENNESSEE VALLEY
NATIONAL WEATHER SERVICE HUNTSVILLE AL
1000 PM CDT SUN APR 22 2018

ALZ001>004-230400-
NORTHWEST ALABAMA

CITY           SKY/WX    TMP DP  RH WIND       PRES   REMARKS
SHOALS AIRPORT LGT RAIN  61  57  87 SE9       29.77R
$$

ALZ005>007-016-230400-
NORTH CENTRAL ALABAMA

CITY           SKY/WX    TMP DP  RH WIND       PRES   REMARKS
DECATUR AP     TSTM      60  59  96 E18G30    29.79R FOG
HUNTSVILLE AP  LGT RAIN  61  61 100 SE22G35   29.79S
MERIDIANVILLE  CLOUDY    59  57  91 SE20G36   29.80F
REDSTONE ARSN  LGT RAIN  60  58  91 SE16G25   29.81R
VINEMONT AP    HVY RAIN  60  58  95 E9G25     29.84R
$$

ALZ008>010-230400-
NORTHEAST ALABAMA

CITY           SKY/WX    TMP DP  RH WIND       PRES   REMARKS
ALBERTVILLE    HVY RAIN  59  59 100 SE14G30   29.81F
FORT PAYNE     HVY RAIN  59  55  88 E16G23    29.92F
SCOTTSBORO AP  LGT RAIN  61  61 100 E10G23    29.91F
$$

TNZ076-096-097-230400-
SOUTHEASTERN MIDDLE TENNESSEE

CITY           SKY/WX    TMP DP  RH WIND       PRES   REMARKS
TULLAHOMA      CLOUDY    57  55  94 E15G28    29.89F
WINCHESTER     CLOUDY    57  55  94 SE22G33   29.89F FOG
$$

...SURROUNDING SITES...

CITY           SKY/WX    TMP DP  RH WIND       PRES   REMARKS
ATLANTA        LGT RAIN  59  58  96 E22G37    30.03F
ANNISTON       RAIN      62  59  90 E18G29    29.89F FOG
BIRMINGHAM     LGT RAIN  64  62  93 SE16G25   29.85R
CHATTANOOGA    LGT RAIN  58  55  90 N7        30.00F FOG
CORINTH        LGT RAIN  59  59 100 NE8       29.79F
DALTON         CLOUDY    59  54  82 SE15G29   30.01F
GADSDEN        LGT RAIN  61  61 100 E16G26    29.87F
GOLDEN TRNGL   CLOUDY    60  59  96 W6        29.85R
HALEYVILLE     RAIN      59  59 100 CALM      29.78R FOG
JACKSON TN     RAIN      59  59 100 E9        29.84F
MEMPHIS        LGT RAIN  62  61  96 NE5       29.84S
NASHVILLE      RAIN      58  56  93 E21G31    29.93F FOG
ROME           LGT RAIN  61  58  90 SE17G32   29.97F
SAVANNAH       CLOUDY    59  57  94 N10       29.78F FOG
SELMER         CLOUDY    57  57 100 N10       29.80F FOG
TUPELO         CLOUDY    61  58  90 SW5       29.81R
TUSCALOOSA     CLOUDY    63  62  97 SW8       29.85R
$$

...GULF COAST WEATHER...

CITY           SKY/WX    TMP DP  RH WIND       PRES   REMARKS
GULFPORT       FAIR      65  62  90 MISG      29.91R
PASCAGOULA     FOG       65  63  93 NW3       29.91R VSB 1
MOBILE         FAIR      65  62  90 CALM      29.92S
GULF SHORES    CLOUDY    69  69  99 SW8       29.92R
PENSACOLA      CLOUDY    71  68  90 SW8       29.92
DESTIN         FAIR      73  67  81 VRB3      29.93R
PANAMA CITY    LGT RAIN  70  68  94 S15       29.95S
APPALACHICOLA  LGT RAIN  72  72 100 S13       29.98S
$$





USA.gov is the U.S. government's official web portal to all federal, state and local government web resources and services.